Flag for U.S.A. Weather past 2 weeks in Norwalk, California, U.S.A.

Now
64 °F

Partly sunny.


Feels Like: 64 °F
Forecast: 48 / 62 °F
Wind: 3 mph from North

Location: Fullerton Municipal Airport

Current Time: Dec 18, 2014 at 2:04:03 PM

Latest Report: Dec 18, 2014 at 12:53 PM


Visibility: 10 mi

Pressure: 30.13 "Hg

Humidity: 50%

Dew point: 45 °F

Location of NorwalkLocation

Historic Weather in Norwalk — Graph

°F

Norwalk temperature yesterday

Maximum temperature yesterday: 66 °F (at 12:53 PM)
Minimum temperature yesterday: 52 °F (at 11:53 PM)
Average temperature yesterday: 58 °F

Past Weeks' High & Low Weather Summary

 TemperatureHumidityPressure
High80 °F (Dec 8, 1:53 PM)94% (Dec 3, 7:53 PM)30.20 "Hg (Dec 3, 7:53 PM)
Low47 °F (Dec 14, 5:53 AM)26% (Dec 8, 1:53 PM)29.82 "Hg (Dec 12, 3:53 AM)
Average61 °F73%30.03 "Hg
* Reported Dec 3 11:53 AM — Dec 18 11:53 AM, Norwalk, Weather by CustomWeather, © 2014

Note: Actual official high and low records may vary slightly from our data, if they occured in-between our weather recording intervals... More about our weather records

Advertising

Norwalk weather history for previous 24 hours

 ConditionsComfort  
Time TempWeatherWind HumidityBarometerVisibility
11:53 AM
Dec 18
64 °FPartly sunny.3 mph50%30.15 "Hg10 mi
10:53 AM62 °FOvercast.3 mph56%30.18 "Hg10 mi
9:53 AM60 °FPartly sunny.6 mph60%30.19 "Hg10 mi
8:53 AM57 °FScattered clouds.6 mph67%30.18 "Hg10 mi
7:53 AM53 °FScattered clouds.5 mph77%30.16 "Hg10 mi
6:53 AM50 °FPartly sunny.No wind83%30.15 "Hg10 mi
5:53 AM48 °FClear.No wind86%30.13 "Hg10 mi
4:53 AM49 °FClear.No wind84%30.11 "Hg10 mi
3:53 AM51 °FOvercast.No wind80%30.11 "Hg10 mi
2:53 AM51 °FPassing clouds.5 mph77%30.10 "Hg10 mi
1:53 AM51 °FClear.6 mph77%30.11 "Hg10 mi
12:53 AM52 °FClear.6 mph77%30.09 "Hg10 mi
11:53 PM
Dec 17
52 °FClear.No wind77%30.10 "Hg10 mi
10:53 PM54 °FClear.No wind74%30.11 "Hg10 mi
9:53 PM55 °FClear.No wind72%30.10 "Hg10 mi
8:53 PM56 °FPassing clouds.No wind72%30.09 "Hg10 mi
7:53 PM58 °FOvercast.3 mph67%30.08 "Hg10 mi
6:53 PM60 °FOvercast.No wind62%30.06 "Hg10 mi
5:53 PM60 °FOvercast.No wind60%30.06 "Hg10 mi
4:53 PM61 °FClear.5 mph56%30.06 "Hg10 mi
3:53 PM62 °FPassing clouds.7 mph48%30.05 "Hg10 mi
2:53 PM64 °FScattered clouds.9 mph49%30.04 "Hg10 mi
Weather by CustomWeather, © 2014

See weather overviewHow to use our weather pages